Weather History for KPNA - July, 2013

Change the Weather History Date:

Monday, July 22, 2013

  Actual Average (KBPI) Record (KBPI)
Temperature  
Mean Temperature 62 °F 63 °F  
Max Temperature 86 °F 82 °F 91 °F (2003)
Min Temperature 37 °F 44 °F 31 °F (1978)
Degree Days  
Heating Degree Days 4 3  
Month to date heating degree days 88  
Since 1 June heating degree days 393  
Since 1 July heating degree days 88  
Cooling Degree Days 0 1  
Month to date cooling degree days 14  
Year to date cooling degree days 16  
Since 1 June cooling degree days 16  
Growing Degree Days 12 (Base 50)    
Moisture  
Dew Point 25 °F    
Average Humidity 32    
Maximum Humidity 75    
Minimum Humidity 7    
Precipitation  
Precipitation 0.00 in 0.03 in 0.14 in (1987)
Month to date precipitation 0.46  
Year to date precipitation 3.72  
Sea Level Pressure  
Sea Level Pressure 30.20 in    
Wind  
Wind Speed 8 mph (WNW)    
Max Wind Speed 22 mph    
Max Gust Speed 36 mph    
Visibility 10 miles    
Events      
T = Trace of Precipitation, MM = Missing Value Source: NWS Daily Summary

Daily Weather History Graph

Daily Weather History Graph

Search for Another Location

Airport or City:

Trip Planner

Search our weather history database for the weather conditions in past years. The results will help you decide how hot, cold, wet, or windy it might be!

Date:

Astronomy

Jul. 22, 2013 Rise Set
Actual Time 6:00 AM MDT 8:49 PM MDT
Civil Twilight 5:27 AM MDT 9:22 PM MDT
Nautical Twilight 4:45 AM MDT 10:04 PM MDT
Astronomical Twilight 3:57 AM MDT 10:52 PM MDT
Moon 8:35 PM MDT (7/22) 6:02 AM MDT (7/22)
Length of Visible Light 15h 55m
Length of Day
14h 48m
Full, 100% of the Moon is Illuminated
Jul 22
Full
Jul 22
Full
Jul 29
Last Quarter
Aug 6
New
Aug 14
First Quarter

Hourly Weather History & Observations

Time (MDT) Temp. Windchill Dew Point Humidity Pressure Visibility Wind Dir Wind Speed Gust Speed Precip Events Conditions
12:15 AM 50.0 °F - 30.2 °F 47% 30.19 in 10.0 mi WNW 4.6 mph - N/A   Clear
12:35 AM 46.4 °F 44.3 °F 32.0 °F 57% 30.19 in 10.0 mi WNW 4.6 mph - N/A   Clear
12:55 AM 48.2 °F - 32.0 °F 54% 30.19 in 10.0 mi NNW 4.6 mph - N/A   Clear
1:15 AM 46.4 °F 42.9 °F 30.2 °F 53% 30.19 in 10.0 mi West 6.9 mph - N/A   Clear
1:35 AM 44.6 °F 41.4 °F 32.0 °F 61% 30.19 in 10.0 mi WNW 5.8 mph - N/A   Clear
1:55 AM 44.6 °F 40.7 °F 32.0 °F 61% 30.19 in 10.0 mi WNW 6.9 mph - N/A   Clear
2:15 AM 42.8 °F 39.3 °F 30.2 °F 61% 30.19 in 10.0 mi WNW 5.8 mph - N/A   Clear
2:35 AM 44.6 °F 40.7 °F 32.0 °F 61% 30.19 in 10.0 mi NW 6.9 mph - N/A   Clear
2:55 AM 41.0 °F 36.4 °F 32.0 °F 70% 30.19 in 10.0 mi West 6.9 mph - N/A   Clear
3:15 AM 41.0 °F 37.1 °F 32.0 °F 70% 30.19 in 10.0 mi West 5.8 mph - N/A   Clear
3:35 AM 42.8 °F 40.1 °F 30.2 °F 61% 30.19 in 10.0 mi WNW 4.6 mph - N/A   Clear
3:55 AM 41.0 °F 38.0 °F 30.2 °F 65% 30.18 in 10.0 mi West 4.6 mph - N/A   Clear
4:15 AM 41.0 °F 35.8 °F 32.0 °F 70% 30.18 in 10.0 mi NW 8.1 mph - N/A   Clear
4:35 AM 39.2 °F 34.2 °F 30.2 °F 70% 30.19 in 10.0 mi West 6.9 mph - N/A   Clear
4:55 AM 37.4 °F 33.8 °F 30.2 °F 75% 30.19 in 10.0 mi West 4.6 mph - N/A   Clear
5:15 AM 37.4 °F 33.8 °F 30.2 °F 75% 30.19 in 10.0 mi West 4.6 mph - N/A   Clear
5:35 AM 37.4 °F 32.8 °F 28.4 °F 70% 30.21 in 10.0 mi West 5.8 mph - N/A   Clear
5:55 AM 37.4 °F 30.8 °F 30.2 °F 75% 30.21 in 10.0 mi West 9.2 mph - N/A   Clear
6:15 AM 37.4 °F 30.8 °F 28.4 °F 70% 30.21 in 10.0 mi West 9.2 mph - N/A   Clear
6:35 AM 41.0 °F 36.4 °F 30.2 °F 65% 30.21 in 10.0 mi WNW 6.9 mph - N/A   Clear
6:55 AM 42.8 °F 40.1 °F 30.2 °F 61% 30.21 in 10.0 mi WNW 4.6 mph - N/A   Clear
7:35 AM 50.0 °F - 32.0 °F 50% 30.21 in 10.0 mi NW 4.6 mph - N/A   Clear
8:35 AM 59.0 °F - 32.0 °F 36% 30.22 in 10.0 mi Calm Calm - N/A   Clear
8:55 AM 62.6 °F - 32.0 °F 32% 30.22 in 10.0 mi Calm Calm - N/A   Clear
9:15 AM 66.2 °F - 32.0 °F 28% 30.22 in 10.0 mi East 5.8 mph - N/A   Clear
9:35 AM 68.0 °F - 32.0 °F 26% 30.22 in 10.0 mi East 8.1 mph - N/A   Clear
9:55 AM 69.8 °F - 32.0 °F 25% 30.22 in 10.0 mi East 8.1 mph - N/A   Clear
10:15 AM 71.6 °F - 30.2 °F 22% 30.22 in 10.0 mi East 4.6 mph - N/A   Clear
10:35 AM 73.4 °F - 28.4 °F 19% 30.22 in 10.0 mi East 3.5 mph - N/A   Clear
10:55 AM 75.2 °F - 26.6 °F 17% 30.22 in 10.0 mi Calm Calm - N/A   Clear
11:15 AM 77.0 °F - 24.8 °F 14% 30.22 in 10.0 mi North 4.6 mph - N/A   Clear
11:35 AM 77.0 °F - 23.0 °F 13% 30.22 in 10.0 mi NE 4.6 mph - N/A   Clear
11:55 AM 78.8 °F - 23.0 °F 13% 30.21 in 10.0 mi North 6.9 mph - N/A   Clear
12:15 PM 78.8 °F - 23.0 °F 13% 30.21 in 10.0 mi NE 5.8 mph - N/A   Clear
12:35 PM 80.6 °F - 21.2 °F 11% 30.21 in 10.0 mi NW 10.4 mph - N/A   Clear
12:55 PM 80.6 °F - 21.2 °F 11% 30.20 in 10.0 mi North 9.2 mph 21.9 mph N/A   Clear
1:15 PM 82.4 °F - 14.0 °F 8% 30.19 in 10.0 mi WNW 13.8 mph 17.3 mph N/A   Clear
1:35 PM 82.4 °F - 12.2 °F 7% 30.20 in 10.0 mi WNW 18.4 mph 24.2 mph N/A   Clear
1:55 PM 82.4 °F - 14.0 °F 8% 30.19 in 10.0 mi WNW 11.5 mph 24.2 mph N/A   Clear
2:15 PM 84.2 °F - 14.0 °F 7% 30.19 in 10.0 mi West 18.4 mph 27.6 mph N/A   Clear
2:35 PM 84.2 °F - 17.6 °F 8% 30.19 in 10.0 mi West 13.8 mph 24.2 mph N/A   Clear
2:55 PM 84.2 °F - 14.0 °F 7% 30.19 in 10.0 mi WNW 18.4 mph 31.1 mph N/A   Clear
3:15 PM 84.2 °F - 12.2 °F 7% 30.19 in 10.0 mi West 21.9 mph 35.7 mph N/A   Clear
3:35 PM 84.2 °F - 14.0 °F 7% 30.19 in 10.0 mi WNW 20.7 mph 32.2 mph N/A   Clear
3:55 PM 86.0 °F - 15.8 °F 7% 30.19 in 10.0 mi WNW 15.0 mph 23.0 mph N/A   Clear
4:15 PM 86.0 °F - 17.6 °F 8% 30.19 in 10.0 mi WNW 15.0 mph 25.3 mph N/A   Clear
4:35 PM 84.2 °F - 17.6 °F 8% 30.19 in 10.0 mi West 16.1 mph 23.0 mph N/A   Clear
4:55 PM 84.2 °F - 17.6 °F 8% 30.19 in 10.0 mi West 21.9 mph 26.5 mph N/A   Clear
5:15 PM 82.4 °F - 15.8 °F 8% 30.19 in 10.0 mi WNW 17.3 mph 24.2 mph N/A   Clear
5:35 PM 84.2 °F - 14.0 °F 7% 30.19 in 10.0 mi West 11.5 mph 26.5 mph N/A   Clear
5:55 PM 82.4 °F - 14.0 °F 8% 30.19 in 10.0 mi West 16.1 mph 24.2 mph N/A   Clear
6:15 PM 82.4 °F - 15.8 °F 8% 30.18 in 10.0 mi West 16.1 mph 25.3 mph N/A   Clear
6:35 PM 82.4 °F - 17.6 °F 9% 30.18 in 10.0 mi West 16.1 mph 23.0 mph N/A   Clear
6:55 PM 80.6 °F - 17.6 °F 10% 30.18 in 10.0 mi West 16.1 mph 24.2 mph N/A   Clear
7:15 PM 80.6 °F - 17.6 °F 10% 30.18 in 10.0 mi West 15.0 mph 20.7 mph N/A   Clear
7:35 PM 78.8 °F - 19.4 °F 11% 30.19 in 10.0 mi West 12.7 mph 19.6 mph N/A   Clear
7:55 PM 78.8 °F - 19.4 °F 11% 30.19 in 10.0 mi WNW 11.5 mph - N/A   Clear
8:15 PM 77.0 °F - 21.2 °F 12% 30.19 in 10.0 mi WNW 9.2 mph - N/A   Clear
8:35 PM 73.4 °F - 21.2 °F 14% 30.19 in 10.0 mi West 6.9 mph - N/A   Clear
8:55 PM 68.0 °F - 21.2 °F 17% 30.19 in 10.0 mi West 9.2 mph - N/A   Clear
9:15 PM 64.4 °F - 21.2 °F 19% 30.19 in 10.0 mi WNW 8.1 mph - N/A   Clear
9:35 PM 62.6 °F - 24.8 °F 24% 30.21 in 10.0 mi NW 8.1 mph - N/A   Scattered Clouds
9:55 PM 62.6 °F - 28.4 °F 27% 30.21 in 10.0 mi NNW 5.8 mph - N/A   Scattered Clouds
10:15 PM 59.0 °F - 26.6 °F 29% 30.22 in 10.0 mi Calm Calm - N/A   Scattered Clouds
10:35 PM 59.0 °F - 28.4 °F 31% 30.22 in 10.0 mi WSW 3.5 mph - N/A   Clear
10:55 PM 57.2 °F - 28.4 °F 33% 30.23 in 10.0 mi Calm Calm - N/A   Scattered Clouds
11:15 PM 55.4 °F - 30.2 °F 38% 30.24 in 10.0 mi West 4.6 mph - N/A   Scattered Clouds
11:35 PM 55.4 °F - 32.0 °F 41% 30.24 in 10.0 mi NW 4.6 mph - N/A   Scattered Clouds
11:55 PM 51.8 °F - 32.0 °F 47% 30.25 in 10.0 mi WNW 5.8 mph - N/A   Clear